Location: Boiro
(42.6475°N, 8.8834°W)
Time: 17:20:04
(UTC+01:00)

Vanguard 3 - Pass Details

Date: 05 December 2021
Orbit: 508 x 3260 km, 33.3° (Epoch: 22 January)

Event Time Altitude Azimuth Distance (km) Brightness Sun altitude
Rises 06:07:19 0° 249° (WSW) 7,046 - -29.2°
Reaches altitude 10° 06:11:59 10° 246° (WSW) 6,145 - -28.3°
Exits shadow 06:17:36 24° 240° (WSW) 5,089 10.7 -27.3°
Maximum altitude 06:31:23 60° 173° (S) 3,303 10.1 -24.8°
Drops below altitude 10° 06:46:10 10° 99° (E) 4,837 12.2 -22.1°
Sets 06:49:20 0° 95° (E) 5,532 12.9 -21.5°
